GEFSGL_prec_meanprecacc_180.txt.gz
Total_Precipitation_Accumulation
0.36 0.35 0.39 0.41 0.37 0.33 0.31 0.27 0.24 0.21 0.22 0.25 0.26 0.27 0.31 0.35 0.37 0.39 0.37 0.36 0.35 0.33 0.32 0.34 0.36 0.40 0.46 0.46 0.45 0.45 0.45 0.51 0.52 0.17 0.07 0.09 0.16 0.21 0.22 0.20 0.18 0.16 0.18
0.38 0.36 0.38 0.42 0.40 0.37 0.37 0.34 0.31 0.29 0.27 0.28 0.32 0.33 0.35 0.38 0.41 0.45 0.46 0.47 0.50 0.48 0.43 0.42 0.43 0.44 0.49 0.52 0.55 0.55 0.50 0.47 0.53 0.35 0.13 0.12 0.18 0.24 0.27 0.27 0.25 0.21 0.17
0.38 0.40 0.39 0.42 0.42 0.39 0.39 0.42 0.43 0.45 0.46 0.44 0.46 0.49 0.52 0.53 0.55 0.57 0.60 0.66 0.72 0.71 0.68 0.66 0.60 0.58 0.61 0.58 0.60 0.60 0.56 0.49 0.47 0.44 0.27 0.20 0.22 0.26 0.32 0.34 0.34 0.30 0.25
0.36 0.44 0.44 0.43 0.43 0.42 0.42 0.45 0.55 0.63 0.68 0.72 0.72 0.71 0.73 0.78 0.89 0.94 0.92 0.91 0.89 0.86 0.84 0.84 0.84 0.83 0.82 0.79 0.77 0.70 0.66 0.65 0.59 0.56 0.44 0.32 0.31 0.31 0.41 0.44 0.43 0.39 0.35
0.30 0.40 0.45 0.48 0.54 0.56 0.53 0.50 0.58 0.70 0.77 0.79 0.77 0.76 0.77 0.94 1.27 1.38 1.22 1.00 0.86 0.81 0.78 0.79 0.87 0.99 1.05 1.08 1.13 1.00 0.88 0.90 0.85 0.77 0.62 0.47 0.39 0.41 0.48 0.51 0.60 0.54 0.48
0.25 0.33 0.40 0.52 0.61 0.70 0.67 0.63 0.64 0.71 0.75 0.74 0.72 0.70 0.71 0.84 1.22 1.35 1.06 0.75 0.62 0.65 0.70 0.67 0.68 0.81 0.89 0.95 1.09 1.10 1.10 1.16 1.17 1.06 0.91 0.76 0.57 0.52 0.56 0.69 0.79 0.87 0.77
0.24 0.33 0.36 0.46 0.55 0.62 0.63 0.64 0.62 0.56 0.53 0.55 0.58 0.54 0.53 0.63 0.97 1.06 0.78 0.48 0.36 0.40 0.47 0.50 0.50 0.57 0.70 0.72 0.76 0.79 0.86 1.00 1.18 1.26 1.23 0.99 0.78 0.67 0.76 0.86 0.90 0.98 0.91
0.22 0.31 0.32 0.39 0.47 0.48 0.51 0.53 0.53 0.44 0.42 0.46 0.43 0.35 0.30 0.36 0.70 0.87 0.64 0.34 0.26 0.29 0.35 0.40 0.41 0.45 0.57 0.75 0.81 0.70 0.63 0.73 0.97 1.15 1.28 1.14 0.97 0.94 1.09 1.25 1.30 1.30 1.17
0.19 0.26 0.29 0.33 0.42 0.41 0.41 0.45 0.46 0.44 0.38 0.33 0.31 0.26 0.20 0.21 0.51 0.82 0.68 0.32 0.27 0.27 0.31 0.38 0.37 0.32 0.52 0.70 0.73 0.66 0.54 0.56 0.67 0.93 1.10 1.13 1.14 1.24 1.41 1.65 1.78 1.84 1.69
0.14 0.19 0.23 0.24 0.30 0.30 0.30 0.31 0.33 0.32 0.30 0.27 0.23 0.21 0.19 0.17 0.34 0.75 0.82 0.42 0.33 0.27 0.26 0.32 0.42 0.42 0.54 0.62 0.60 0.62 0.65 0.57 0.50 0.53 0.61 0.70 0.79 0.88 1.13 1.41 1.61 1.84 1.83
0.10 0.13 0.17 0.18 0.20 0.22 0.25 0.27 0.27 0.27 0.26 0.24 0.21 0.18 0.17 0.18 0.22 0.52 0.89 0.67 0.43 0.32 0.30 0.34 0.36 0.45 0.51 0.55 0.58 0.62 0.75 0.66 0.53 0.57 0.58 0.58 0.63 0.73 0.87 1.10 1.37 1.65 1.85
0.08 0.11 0.15 0.18 0.16 0.19 0.21 0.24 0.23 0.26 0.27 0.25 0.22 0.21 0.19 0.19 0.23 0.39 0.66 0.79 0.63 0.42 0.37 0.29 0.30 0.39 0.44 0.50 0.52 0.57 0.60 0.61 0.60 0.62 0.59 0.56 0.59 0.67 0.77 0.89 1.11 1.34 1.51
0.06 0.08 0.13 0.18 0.15 0.17 0.19 0.23 0.23 0.25 0.30 0.31 0.27 0.24 0.21 0.22 0.28 0.43 0.47 0.53 0.61 0.52 0.49 0.46 0.36 0.37 0.39 0.35 0.37 0.45 0.47 0.48 0.59 0.60 0.52 0.47 0.50 0.60 0.66 0.75 0.86 1.07 1.24
0.05 0.07 0.11 0.16 0.17 0.16 0.18 0.21 0.23 0.25 0.39 0.45 0.38 0.32 0.27 0.26 0.38 0.56 0.49 0.42 0.48 0.52 0.51 0.48 0.40 0.37 0.33 0.28 0.27 0.29 0.32 0.38 0.48 0.50 0.44 0.39 0.39 0.48 0.58 0.71 0.85 0.98 1.18
0.07 0.08 0.10 0.14 0.17 0.17 0.18 0.19 0.22 0.25 0.44 0.58 0.48 0.45 0.44 0.47 0.57 0.71 0.65 0.60 0.61 0.62 0.62 0.57 0.47 0.38 0.35 0.31 0.26 0.23 0.25 0.31 0.38 0.38 0.38 0.39 0.41 0.47 0.53 0.63 0.82 0.97 1.14
0.10 0.10 0.12 0.15 0.18 0.18 0.19 0.20 0.25 0.27 0.34 0.36 0.38 0.44 0.43 0.53 0.59 0.57 0.59 0.62 0.65 0.66 0.67 0.64 0.44 0.33 0.30 0.28 0.27 0.25 0.23 0.25 0.28 0.33 0.37 0.39 0.42 0.48 0.53 0.58 0.74 0.91 1.03
0.12 0.13 0.15 0.16 0.18 0.19 0.20 0.23 0.26 0.26 0.27 0.28 0.29 0.34 0.42 0.49 0.48 0.48 0.54 0.55 0.56 0.56 0.55 0.45 0.35 0.30 0.27 0.25 0.24 0.25 0.25 0.21 0.23 0.30 0.33 0.34 0.38 0.44 0.50 0.55 0.62 0.76 0.89
0.13 0.16 0.18 0.18 0.18 0.19 0.21 0.23 0.26 0.28 0.29 0.26 0.27 0.30 0.36 0.43 0.44 0.45 0.53 0.58 0.55 0.49 0.41 0.36 0.33 0.28 0.26 0.25 0.25 0.25 0.24 0.23 0.24 0.26 0.27 0.29 0.34 0.44 0.48 0.50 0.55 0.67 0.78
0.16 0.18 0.20 0.21 0.20 0.20 0.21 0.23 0.25 0.27 0.28 0.28 0.28 0.32 0.35 0.40 0.43 0.43 0.45 0.47 0.43 0.39 0.37 0.34 0.31 0.29 0.28 0.27 0.26 0.26 0.27 0.26 0.24 0.25 0.27 0.26 0.29 0.39 0.44 0.43 0.48 0.58 0.73
0.19 0.24 0.27 0.25 0.24 0.24 0.23 0.25 0.27 0.30 0.30 0.30 0.32 0.31 0.39 0.48 0.46 0.44 0.42 0.41 0.44 0.41 0.38 0.36 0.32 0.30 0.31 0.30 0.30 0.31 0.31 0.28 0.25 0.26 0.25 0.25 0.26 0.33 0.37 0.38 0.44 0.53 0.62
0.21 0.24 0.28 0.28 0.27 0.28 0.31 0.32 0.33 0.36 0.37 0.34 0.30 0.31 0.51 0.57 0.47 0.37 0.36 0.38 0.41 0.43 0.41 0.39 0.36 0.35 0.34 0.34 0.34 0.33 0.33 0.29 0.26 0.26 0.26 0.25 0.26 0.30 0.31 0.35 0.38 0.45 0.53
0.23 0.26 0.26 0.28 0.31 0.35 0.39 0.40 0.41 0.41 0.39 0.36 0.31 0.32 0.42 0.42 0.38 0.34 0.33 0.33 0.33 0.38 0.43 0.46 0.42 0.38 0.39 0.42 0.43 0.40 0.35 0.29 0.24 0.25 0.26 0.25 0.25 0.26 0.28 0.32 0.34 0.40 0.48
0.27 0.31 0.32 0.31 0.33 0.40 0.42 0.38 0.41 0.42 0.42 0.40 0.36 0.35 0.35 0.36 0.36 0.35 0.34 0.32 0.32 0.33 0.35 0.41 0.42 0.37 0.35 0.39 0.41 0.44 0.42 0.32 0.26 0.27 0.31 0.29 0.26 0.25 0.26 0.29 0.31 0.37 0.44
0.30 0.32 0.35 0.37 0.39 0.41 0.42 0.42 0.43 0.43 0.44 0.45 0.43 0.39 0.36 0.35 0.35 0.33 0.32 0.32 0.32 0.31 0.31 0.35 0.36 0.34 0.34 0.38 0.40 0.38 0.36 0.34 0.35 0.36 0.33 0.33 0.30 0.26 0.28 0.31 0.30 0.34 0.41
0.30 0.33 0.36 0.41 0.45 0.45 0.47 0.48 0.48 0.48 0.48 0.48 0.46 0.43 0.38 0.35 0.34 0.33 0.32 0.32 0.33 0.31 0.29 0.31 0.34 0.35 0.34 0.34 0.37 0.38 0.38 0.42 0.49 0.57 0.63 0.61 0.50 0.39 0.37 0.37 0.34 0.34 0.40
0.30 0.33 0.38 0.44 0.49 0.50 0.53 0.55 0.53 0.52 0.53 0.50 0.45 0.44 0.42 0.40 0.38 0.36 0.36 0.36 0.37 0.35 0.32 0.30 0.30 0.34 0.34 0.34 0.34 0.37 0.43 0.48 0.59 0.76 0.95 0.96 0.71 0.48 0.40 0.41 0.37 0.38 0.41

GEFSGL_prec_meanprecacc_186.txt.gz
Total_Precipitation_Accumulation
0.48 0.47 0.52 0.55 0.51 0.49 0.48 0.43 0.40 0.39 0.44 0.46 0.42 0.44 0.48 0.49 0.51 0.54 0.53 0.50 0.46 0.42 0.39 0.40 0.40 0.43 0.48 0.48 0.47 0.47 0.45 0.52 0.53 0.17 0.07 0.09 0.16 0.21 0.22 0.21 0.18 0.17 0.19
0.50 0.48 0.50 0.56 0.55 0.53 0.55 0.52 0.48 0.44 0.45 0.49 0.50 0.50 0.54 0.55 0.53 0.56 0.58 0.59 0.62 0.59 0.51 0.46 0.46 0.47 0.51 0.54 0.59 0.57 0.51 0.48 0.54 0.36 0.14 0.12 0.18 0.24 0.27 0.28 0.25 0.21 0.17
0.47 0.49 0.50 0.54 0.56 0.55 0.55 0.59 0.61 0.61 0.61 0.62 0.63 0.66 0.70 0.71 0.69 0.69 0.69 0.75 0.81 0.79 0.75 0.72 0.64 0.61 0.64 0.61 0.63 0.63 0.58 0.51 0.48 0.46 0.28 0.21 0.22 0.26 0.32 0.35 0.35 0.31 0.25
0.43 0.53 0.54 0.56 0.56 0.56 0.58 0.62 0.73 0.79 0.82 0.87 0.89 0.87 0.90 0.95 1.03 1.07 1.03 0.99 0.96 0.92 0.89 0.89 0.88 0.85 0.85 0.82 0.81 0.74 0.69 0.68 0.61 0.58 0.46 0.34 0.32 0.32 0.41 0.44 0.44 0.40 0.36
0.37 0.48 0.55 0.60 0.68 0.72 0.71 0.69 0.75 0.87 0.90 0.90 0.92 0.92 0.91 1.10 1.40 1.49 1.31 1.08 0.92 0.86 0.83 0.83 0.91 1.03 1.07 1.12 1.17 1.03 0.91 0.93 0.88 0.81 0.66 0.50 0.41 0.43 0.50 0.52 0.61 0.55 0.49
0.32 0.40 0.50 0.64 0.74 0.84 0.84 0.83 0.83 0.87 0.90 0.87 0.85 0.85 0.85 0.98 1.35 1.46 1.14 0.82 0.68 0.70 0.74 0.71 0.72 0.86 0.92 0.99 1.12 1.13 1.12 1.19 1.20 1.10 0.95 0.79 0.59 0.54 0.58 0.71 0.82 0.90 0.79
0.29 0.38 0.44 0.57 0.68 0.75 0.78 0.80 0.78 0.70 0.66 0.69 0.71 0.67 0.67 0.77 1.10 1.18 0.89 0.55 0.41 0.44 0.52 0.55 0.55 0.62 0.75 0.75 0.80 0.82 0.88 1.03 1.21 1.29 1.26 1.01 0.80 0.69 0.79 0.89 0.93 1.01 0.94
0.27 0.37 0.40 0.48 0.58 0.61 0.64 0.67 0.67 0.56 0.52 0.58 0.57 0.47 0.41 0.48 0.83 0.99 0.76 0.44 0.34 0.36 0.41 0.45 0.47 0.50 0.62 0.79 0.85 0.73 0.65 0.75 1.00 1.18 1.31 1.17 1.00 0.96 1.11 1.28 1.33 1.33 1.19
0.24 0.32 0.37 0.42 0.53 0.52 0.52 0.57 0.57 0.55 0.48 0.44 0.46 0.39 0.30 0.30 0.61 0.93 0.79 0.42 0.38 0.36 0.38 0.44 0.43 0.38 0.58 0.76 0.78 0.71 0.58 0.60 0.72 0.98 1.15 1.17 1.18 1.27 1.43 1.67 1.80 1.86 1.71
0.19 0.25 0.29 0.33 0.41 0.40 0.40 0.42 0.43 0.42 0.40 0.37 0.36 0.32 0.29 0.27 0.43 0.84 0.91 0.52 0.43 0.36 0.34 0.38 0.49 0.48 0.62 0.69 0.66 0.67 0.70 0.62 0.54 0.57 0.65 0.74 0.81 0.90 1.16 1.43 1.63 1.86 1.86
0.15 0.20 0.24 0.26 0.30 0.32 0.34 0.36 0.37 0.38 0.37 0.35 0.32 0.28 0.24 0.25 0.31 0.60 0.98 0.76 0.54 0.41 0.38 0.40 0.42 0.51 0.58 0.62 0.64 0.66 0.80 0.71 0.58 0.61 0.62 0.62 0.67 0.76 0.90 1.12 1.40 1.68 1.88
0.13 0.17 0.21 0.25 0.25 0.28 0.30 0.33 0.33 0.36 0.39 0.36 0.34 0.31 0.25 0.24 0.29 0.47 0.75 0.87 0.72 0.52 0.46 0.35 0.35 0.45 0.51 0.58 0.58 0.62 0.66 0.66 0.65 0.65 0.63 0.61 0.64 0.72 0.80 0.92 1.14 1.37 1.53
0.12 0.14 0.19 0.23 0.20 0.25 0.29 0.34 0.34 0.36 0.41 0.42 0.39 0.35 0.29 0.27 0.33 0.49 0.54 0.61 0.69 0.60 0.58 0.57 0.45 0.45 0.47 0.43 0.45 0.52 0.54 0.53 0.62 0.64 0.56 0.52 0.55 0.65 0.70 0.79 0.89 1.09 1.27
0.11 0.11 0.16 0.21 0.21 0.22 0.26 0.33 0.35 0.36 0.48 0.54 0.48 0.43 0.34 0.31 0.42 0.61 0.54 0.48 0.55 0.60 0.59 0.58 0.52 0.48 0.44 0.38 0.38 0.39 0.39 0.43 0.52 0.55 0.50 0.44 0.44 0.52 0.62 0.74 0.87 1.00 1.20
0.11 0.12 0.15 0.21 0.24 0.24 0.26 0.29 0.33 0.34 0.52 0.65 0.55 0.54 0.50 0.51 0.61 0.76 0.70 0.65 0.67 0.70 0.72 0.66 0.57 0.49 0.47 0.42 0.36 0.31 0.32 0.37 0.44 0.43 0.44 0.45 0.46 0.51 0.57 0.66 0.84 0.98 1.16
0.14 0.15 0.19 0.24 0.27 0.27 0.27 0.29 0.34 0.34 0.41 0.43 0.44 0.49 0.47 0.56 0.64 0.61 0.63 0.67 0.70 0.73 0.76 0.72 0.53 0.43 0.41 0.38 0.35 0.33 0.30 0.31 0.34 0.39 0.43 0.45 0.48 0.52 0.57 0.61 0.76 0.93 1.05
0.16 0.19 0.23 0.26 0.28 0.29 0.27 0.30 0.34 0.34 0.35 0.35 0.35 0.39 0.46 0.52 0.52 0.52 0.58 0.61 0.62 0.62 0.61 0.51 0.42 0.39 0.36 0.34 0.33 0.33 0.32 0.28 0.29 0.36 0.39 0.40 0.43 0.49 0.54 0.58 0.64 0.77 0.90
0.17 0.21 0.26 0.29 0.29 0.28 0.27 0.29 0.32 0.36 0.38 0.36 0.35 0.37 0.42 0.48 0.48 0.50 0.58 0.65 0.62 0.55 0.46 0.41 0.39 0.36 0.35 0.35 0.35 0.35 0.33 0.31 0.32 0.34 0.35 0.35 0.40 0.48 0.52 0.52 0.56 0.69 0.80
0.20 0.23 0.28 0.30 0.30 0.27 0.26 0.27 0.28 0.31 0.35 0.37 0.38 0.41 0.44 0.47 0.49 0.50 0.52 0.52 0.49 0.45 0.43 0.40 0.37 0.36 0.37 0.38 0.38 0.37 0.37 0.36 0.33 0.34 0.35 0.33 0.34 0.42 0.46 0.44 0.50 0.60 0.75
0.23 0.30 0.35 0.33 0.32 0.30 0.28 0.29 0.30 0.33 0.37 0.39 0.41 0.41 0.49 0.55 0.53 0.52 0.49 0.47 0.50 0.47 0.44 0.43 0.39 0.37 0.40 0.41 0.42 0.43 0.43 0.38 0.35 0.35 0.33 0.31 0.30 0.35 0.39 0.40 0.45 0.54 0.63
0.26 0.29 0.35 0.34 0.34 0.34 0.35 0.35 0.36 0.40 0.43 0.42 0.39 0.42 0.61 0.64 0.53 0.43 0.43 0.45 0.48 0.50 0.48 0.46 0.44 0.43 0.43 0.44 0.45 0.44 0.44 0.39 0.35 0.35 0.34 0.31 0.30 0.32 0.33 0.37 0.40 0.46 0.54
0.27 0.30 0.30 0.32 0.37 0.40 0.43 0.42 0.43 0.45 0.45 0.44 0.40 0.41 0.51 0.50 0.44 0.41 0.40 0.41 0.42 0.46 0.50 0.54 0.51 0.46 0.47 0.51 0.52 0.50 0.44 0.38 0.33 0.34 0.34 0.31 0.30 0.30 0.31 0.34 0.36 0.41 0.49
0.29 0.33 0.34 0.34 0.37 0.44 0.45 0.40 0.43 0.46 0.48 0.47 0.43 0.42 0.43 0.44 0.43 0.42 0.42 0.41 0.41 0.42 0.44 0.51 0.52 0.47 0.44 0.46 0.49 0.52 0.49 0.39 0.33 0.35 0.39 0.36 0.32 0.29 0.29 0.31 0.32 0.39 0.45
0.32 0.34 0.37 0.39 0.42 0.44 0.44 0.44 0.45 0.47 0.50 0.52 0.50 0.45 0.43 0.42 0.43 0.42 0.41 0.41 0.42 0.40 0.41 0.45 0.47 0.44 0.43 0.46 0.47 0.45 0.43 0.41 0.42 0.42 0.40 0.39 0.36 0.31 0.33 0.34 0.32 0.35 0.42
0.32 0.34 0.38 0.43 0.47 0.48 0.49 0.50 0.51 0.51 0.53 0.54 0.53 0.50 0.44 0.41 0.41 0.41 0.40 0.42 0.43 0.42 0.39 0.41 0.44 0.44 0.42 0.41 0.43 0.44 0.45 0.49 0.56 0.64 0.70 0.68 0.56 0.45 0.42 0.40 0.37 0.36 0.41
0.32 0.35 0.39 0.46 0.51 0.52 0.55 0.57 0.56 0.55 0.58 0.56 0.52 0.50 0.47 0.45 0.44 0.43 0.44 0.45 0.48 0.46 0.42 0.39 0.40 0.43 0.43 0.41 0.40 0.44 0.49 0.54 0.65 0.83 1.03 1.04 0.78 0.54 0.45 0.45 0.41 0.40 0.43

GEFSGL_prec_meanprecacc_192.txt.gz
Total_Precipitation_Accumulation
0.53 0.55 0.58 0.61 0.60 0.58 0.56 0.52 0.49 0.47 0.53 0.56 0.54 0.57 0.62 0.64 0.66 0.68 0.67 0.61 0.56 0.50 0.46 0.47 0.48 0.51 0.56 0.55 0.54 0.53 0.52 0.58 0.59 0.21 0.10 0.11 0.17 0.22 0.22 0.21 0.18 0.17 0.20
0.54 0.55 0.57 0.61 0.62 0.62 0.65 0.61 0.58 0.52 0.51 0.56 0.59 0.60 0.67 0.70 0.68 0.71 0.74 0.74 0.75 0.70 0.61 0.56 0.55 0.55 0.58 0.60 0.64 0.63 0.57 0.53 0.59 0.41 0.16 0.14 0.20 0.26 0.28 0.29 0.27 0.23 0.19
0.51 0.55 0.57 0.59 0.62 0.63 0.65 0.70 0.72 0.71 0.70 0.70 0.72 0.75 0.80 0.85 0.85 0.84 0.85 0.90 0.95 0.93 0.88 0.83 0.72 0.68 0.70 0.66 0.67 0.68 0.63 0.55 0.53 0.50 0.32 0.23 0.24 0.28 0.34 0.37 0.37 0.33 0.27
0.48 0.58 0.59 0.61 0.61 0.63 0.67 0.72 0.83 0.90 0.93 0.96 0.98 0.97 0.99 1.06 1.18 1.22 1.18 1.15 1.10 1.06 1.03 1.02 0.98 0.92 0.90 0.86 0.84 0.78 0.74 0.72 0.65 0.62 0.50 0.37 0.35 0.35 0.44 0.47 0.47 0.43 0.39
0.41 0.52 0.59 0.65 0.73 0.78 0.79 0.79 0.85 0.98 1.03 1.00 1.01 1.02 1.02 1.21 1.53 1.64 1.47 1.23 1.06 0.99 0.96 0.96 1.02 1.11 1.13 1.16 1.20 1.06 0.95 0.97 0.92 0.84 0.69 0.53 0.44 0.46 0.53 0.56 0.65 0.59 0.52
0.37 0.45 0.55 0.69 0.80 0.91 0.91 0.92 0.93 0.98 1.04 1.01 0.96 0.96 0.97 1.11 1.48 1.60 1.28 0.96 0.82 0.83 0.86 0.82 0.82 0.94 0.99 1.03 1.16 1.17 1.17 1.24 1.23 1.13 0.98 0.82 0.62 0.56 0.62 0.75 0.85 0.93 0.82
0.36 0.44 0.50 0.63 0.75 0.85 0.87 0.88 0.88 0.80 0.80 0.86 0.87 0.81 0.79 0.90 1.24 1.32 1.02 0.68 0.55 0.58 0.63 0.64 0.63 0.68 0.80 0.79 0.84 0.87 0.94 1.08 1.26 1.33 1.29 1.04 0.84 0.73 0.82 0.92 0.96 1.04 0.97
0.32 0.44 0.46 0.55 0.66 0.71 0.75 0.78 0.78 0.68 0.67 0.75 0.73 0.61 0.55 0.62 0.96 1.12 0.90 0.57 0.49 0.49 0.50 0.54 0.53 0.54 0.66 0.83 0.89 0.78 0.70 0.80 1.05 1.22 1.35 1.21 1.04 1.00 1.15 1.31 1.36 1.36 1.22
0.27 0.37 0.42 0.48 0.61 0.62 0.63 0.70 0.70 0.68 0.63 0.59 0.59 0.54 0.46 0.48 0.75 1.05 0.92 0.55 0.52 0.49 0.48 0.52 0.48 0.43 0.62 0.80 0.83 0.75 0.63 0.64 0.77 1.03 1.19 1.21 1.21 1.30 1.46 1.70 1.83 1.89 1.75
0.23 0.30 0.33 0.37 0.48 0.50 0.49 0.55 0.57 0.54 0.52 0.49 0.48 0.47 0.44 0.41 0.56 0.96 1.02 0.63 0.56 0.50 0.46 0.45 0.55 0.54 0.67 0.74 0.69 0.71 0.74 0.65 0.57 0.61 0.70 0.77 0.84 0.94 1.20 1.45 1.65 1.89 1.90
0.19 0.23 0.27 0.30 0.35 0.38 0.41 0.45 0.48 0.47 0.47 0.46 0.45 0.42 0.37 0.36 0.42 0.71 1.07 0.85 0.64 0.53 0.49 0.48 0.47 0.58 0.64 0.68 0.69 0.71 0.83 0.74 0.61 0.65 0.66 0.65 0.69 0.78 0.92 1.14 1.42 1.71 1.93
0.16 0.20 0.24 0.29 0.29 0.33 0.36 0.40 0.41 0.45 0.50 0.50 0.46 0.42 0.36 0.34 0.39 0.58 0.84 0.96 0.82 0.61 0.55 0.43 0.41 0.52 0.58 0.64 0.64 0.68 0.72 0.71 0.69 0.70 0.68 0.65 0.67 0.74 0.82 0.95 1.17 1.40 1.57
0.15 0.17 0.23 0.27 0.25 0.30 0.35 0.41 0.42 0.46 0.54 0.54 0.49 0.44 0.38 0.37 0.44 0.61 0.64 0.70 0.80 0.69 0.66 0.66 0.53 0.52 0.54 0.50 0.52 0.60 0.61 0.60 0.69 0.70 0.61 0.55 0.58 0.68 0.73 0.82 0.93 1.13 1.30
0.15 0.16 0.20 0.26 0.27 0.27 0.32 0.40 0.42 0.44 0.59 0.64 0.59 0.52 0.42 0.39 0.51 0.71 0.65 0.59 0.67 0.70 0.69 0.67 0.61 0.57 0.53 0.47 0.47 0.47 0.46 0.50 0.59 0.61 0.54 0.48 0.48 0.56 0.66 0.78 0.91 1.04 1.24
0.15 0.16 0.20 0.26 0.30 0.29 0.31 0.35 0.39 0.40 0.59 0.74 0.65 0.64 0.59 0.59 0.68 0.85 0.82 0.77 0.78 0.80 0.80 0.75 0.65 0.59 0.58 0.52 0.45 0.40 0.40 0.45 0.51 0.49 0.50 0.50 0.50 0.55 0.62 0.70 0.89 1.04 1.21
0.19 0.21 0.24 0.29 0.32 0.32 0.33 0.35 0.40 0.39 0.46 0.49 0.52 0.58 0.57 0.66 0.72 0.69 0.74 0.77 0.79 0.82 0.83 0.78 0.60 0.50 0.50 0.48 0.45 0.41 0.38 0.38 0.40 0.44 0.48 0.50 0.53 0.58 0.63 0.67 0.82 0.99 1.10
0.22 0.25 0.28 0.31 0.34 0.34 0.33 0.35 0.40 0.39 0.39 0.40 0.42 0.48 0.58 0.64 0.60 0.61 0.68 0.69 0.69 0.68 0.66 0.55 0.47 0.45 0.45 0.45 0.43 0.41 0.39 0.34 0.36 0.41 0.44 0.45 0.48 0.54 0.60 0.65 0.70 0.82 0.94
0.22 0.26 0.30 0.34 0.35 0.33 0.30 0.32 0.37 0.41 0.45 0.44 0.46 0.49 0.54 0.59 0.58 0.59 0.66 0.72 0.69 0.60 0.50 0.46 0.43 0.41 0.42 0.44 0.44 0.43 0.41 0.38 0.38 0.40 0.41 0.41 0.46 0.55 0.58 0.58 0.62 0.73 0.83
0.24 0.27 0.32 0.36 0.36 0.32 0.29 0.31 0.33 0.36 0.42 0.47 0.52 0.57 0.58 0.59 0.59 0.59 0.59 0.58 0.53 0.49 0.46 0.43 0.40 0.40 0.42 0.45 0.47 0.46 0.46 0.44 0.40 0.41 0.41 0.40 0.42 0.50 0.54 0.50 0.54 0.64 0.78
0.27 0.34 0.40 0.39 0.38 0.34 0.32 0.33 0.35 0.38 0.41 0.46 0.52 0.54 0.62 0.67 0.62 0.59 0.54 0.51 0.53 0.51 0.48 0.46 0.43 0.42 0.46 0.49 0.52 0.53 0.52 0.46 0.43 0.42 0.39 0.37 0.37 0.43 0.46 0.46 0.49 0.58 0.66
0.31 0.35 0.41 0.41 0.40 0.38 0.39 0.39 0.40 0.42 0.46 0.47 0.48 0.53 0.74 0.74 0.61 0.49 0.47 0.48 0.52 0.54 0.52 0.51 0.49 0.49 0.51 0.53 0.52 0.51 0.51 0.46 0.42 0.42 0.40 0.37 0.37 0.39 0.39 0.43 0.45 0.50 0.58
0.33 0.36 0.35 0.38 0.42 0.44 0.46 0.45 0.46 0.46 0.47 0.49 0.47 0.50 0.61 0.57 0.50 0.46 0.44 0.44 0.46 0.50 0.54 0.58 0.56 0.52 0.54 0.58 0.58 0.55 0.50 0.44 0.39 0.39 0.39 0.37 0.36 0.36 0.37 0.40 0.42 0.46 0.53
0.35 0.38 0.39 0.39 0.42 0.49 0.48 0.43 0.45 0.48 0.51 0.52 0.49 0.49 0.50 0.50 0.48 0.47 0.47 0.46 0.46 0.46 0.49 0.55 0.57 0.52 0.49 0.52 0.55 0.57 0.55 0.45 0.38 0.39 0.43 0.41 0.37 0.33 0.34 0.37 0.37 0.43 0.49
0.36 0.38 0.40 0.44 0.47 0.47 0.47 0.46 0.48 0.50 0.54 0.57 0.55 0.52 0.50 0.49 0.48 0.46 0.45 0.46 0.47 0.45 0.46 0.50 0.52 0.49 0.48 0.51 0.52 0.50 0.48 0.46 0.47 0.47 0.44 0.43 0.40 0.36 0.38 0.39 0.37 0.39 0.46
0.35 0.37 0.40 0.46 0.51 0.51 0.52 0.53 0.53 0.54 0.57 0.59 0.58 0.55 0.50 0.47 0.47 0.46 0.44 0.46 0.47 0.47 0.45 0.47 0.50 0.50 0.47 0.46 0.48 0.48 0.50 0.54 0.60 0.68 0.75 0.73 0.60 0.49 0.47 0.46 0.42 0.41 0.46
0.34 0.37 0.42 0.48 0.54 0.55 0.57 0.60 0.58 0.58 0.61 0.60 0.56 0.55 0.52 0.50 0.49 0.48 0.48 0.49 0.52 0.50 0.47 0.45 0.47 0.50 0.49 0.46 0.45 0.48 0.53 0.57 0.68 0.88 1.08 1.10 0.84 0.60 0.51 0.51 0.46 0.45 0.48

GEFSGL_prec_meanprecacc_198.txt.gz
Total_Precipitation_Accumulation
0.57 0.58 0.62 0.67 0.67 0.66 0.64 0.59 0.57 0.57 0.63 0.64 0.61 0.66 0.72 0.73 0.73 0.76 0.73 0.67 0.63 0.58 0.53 0.54 0.53 0.55 0.61 0.60 0.59 0.57 0.57 0.65 0.65 0.26 0.15 0.17 0.23 0.26 0.26 0.23 0.20 0.19 0.21
0.60 0.61 0.62 0.66 0.68 0.69 0.74 0.70 0.65 0.59 0.60 0.65 0.68 0.69 0.76 0.79 0.77 0.79 0.81 0.81 0.83 0.77 0.68 0.62 0.61 0.60 0.64 0.66 0.69 0.68 0.62 0.59 0.65 0.46 0.21 0.19 0.25 0.29 0.31 0.32 0.30 0.25 0.21
0.58 0.62 0.64 0.65 0.68 0.70 0.74 0.80 0.81 0.80 0.79 0.79 0.83 0.85 0.89 0.93 0.92 0.91 0.92 0.98 1.03 1.02 0.97 0.92 0.80 0.76 0.77 0.72 0.73 0.74 0.68 0.61 0.58 0.55 0.36 0.27 0.29 0.32 0.38 0.41 0.41 0.37 0.30
0.55 0.67 0.68 0.68 0.66 0.69 0.75 0.82 0.92 0.99 1.03 1.06 1.10 1.09 1.08 1.15 1.26 1.29 1.26 1.23 1.19 1.15 1.11 1.11 1.07 1.00 0.97 0.93 0.92 0.86 0.81 0.79 0.71 0.68 0.55 0.41 0.38 0.38 0.47 0.51 0.51 0.48 0.43
0.49 0.60 0.66 0.71 0.78 0.85 0.87 0.89 0.94 1.07 1.13 1.11 1.13 1.14 1.12 1.30 1.61 1.73 1.56 1.32 1.16 1.09 1.05 1.06 1.12 1.21 1.21 1.22 1.27 1.14 1.03 1.05 0.98 0.90 0.74 0.58 0.48 0.49 0.56 0.58 0.68 0.63 0.57
0.42 0.52 0.60 0.74 0.85 0.98 0.99 1.02 1.03 1.07 1.15 1.14 1.09 1.06 1.07 1.19 1.56 1.69 1.37 1.05 0.92 0.95 0.97 0.91 0.92 1.06 1.11 1.14 1.25 1.25 1.25 1.31 1.30 1.19 1.03 0.87 0.66 0.60 0.64 0.77 0.88 0.97 0.87
0.38 0.48 0.54 0.67 0.80 0.91 0.93 0.96 0.97 0.90 0.90 0.98 1.02 0.93 0.90 0.99 1.32 1.41 1.10 0.75 0.64 0.69 0.74 0.75 0.73 0.79 0.94 0.92 0.96 0.98 1.04 1.17 1.33 1.39 1.34 1.09 0.87 0.77 0.87 0.97 0.99 1.08 1.00
0.34 0.46 0.49 0.58 0.70 0.76 0.82 0.86 0.87 0.77 0.76 0.86 0.86 0.76 0.68 0.72 1.05 1.21 0.98 0.64 0.57 0.61 0.64 0.66 0.65 0.65 0.78 0.95 1.00 0.88 0.80 0.89 1.12 1.28 1.40 1.25 1.08 1.04 1.20 1.36 1.41 1.39 1.25
0.30 0.39 0.44 0.50 0.64 0.66 0.71 0.80 0.79 0.78 0.75 0.71 0.71 0.66 0.59 0.59 0.84 1.13 1.01 0.64 0.62 0.61 0.60 0.64 0.60 0.54 0.74 0.92 0.94 0.85 0.72 0.72 0.85 1.10 1.25 1.26 1.25 1.34 1.51 1.75 1.88 1.93 1.77
0.25 0.31 0.35 0.39 0.51 0.54 0.56 0.63 0.66 0.67 0.67 0.64 0.62 0.59 0.57 0.53 0.68 1.05 1.11 0.72 0.66 0.61 0.59 0.60 0.68 0.67 0.79 0.85 0.79 0.81 0.82 0.72 0.64 0.68 0.75 0.82 0.87 0.97 1.24 1.50 1.69 1.92 1.92
0.21 0.25 0.29 0.33 0.38 0.43 0.48 0.52 0.57 0.58 0.59 0.60 0.60 0.54 0.48 0.48 0.54 0.82 1.17 0.94 0.73 0.63 0.61 0.61 0.59 0.71 0.77 0.79 0.79 0.80 0.92 0.80 0.67 0.71 0.71 0.70 0.73 0.82 0.95 1.17 1.46 1.74 1.95
0.18 0.22 0.27 0.31 0.33 0.37 0.41 0.47 0.49 0.55 0.62 0.63 0.60 0.56 0.48 0.45 0.50 0.68 0.94 1.06 0.91 0.70 0.65 0.52 0.49 0.63 0.69 0.75 0.74 0.79 0.83 0.81 0.77 0.78 0.75 0.70 0.71 0.78 0.86 0.98 1.20 1.44 1.60
0.18 0.20 0.26 0.30 0.29 0.35 0.41 0.47 0.50 0.55 0.64 0.65 0.61 0.57 0.50 0.48 0.54 0.71 0.73 0.80 0.90 0.79 0.74 0.74 0.63 0.63 0.65 0.60 0.63 0.72 0.73 0.69 0.78 0.79 0.69 0.62 0.63 0.72 0.77 0.86 0.96 1.16 1.34
0.18 0.20 0.24 0.30 0.31 0.31 0.37 0.46 0.51 0.54 0.67 0.72 0.68 0.63 0.54 0.51 0.61 0.81 0.75 0.69 0.78 0.81 0.79 0.78 0.73 0.71 0.67 0.60 0.60 0.59 0.56 0.59 0.67 0.68 0.61 0.54 0.54 0.62 0.72 0.83 0.97 1.09 1.28
0.20 0.21 0.25 0.31 0.35 0.33 0.35 0.41 0.47 0.48 0.65 0.80 0.73 0.73 0.70 0.71 0.79 0.97 0.94 0.88 0.89 0.90 0.90 0.87 0.79 0.73 0.72 0.65 0.57 0.51 0.49 0.54 0.60 0.56 0.56 0.57 0.57 0.62 0.68 0.76 0.95 1.09 1.26
0.24 0.25 0.27 0.33 0.36 0.36 0.37 0.39 0.44 0.44 0.51 0.54 0.59 0.67 0.67 0.77 0.83 0.78 0.83 0.87 0.89 0.91 0.90 0.87 0.70 0.61 0.62 0.58 0.54 0.51 0.47 0.46 0.47 0.51 0.55 0.57 0.59 0.64 0.69 0.73 0.88 1.04 1.14
0.25 0.28 0.31 0.35 0.36 0.37 0.36 0.38 0.42 0.41 0.43 0.45 0.49 0.56 0.67 0.75 0.70 0.69 0.76 0.77 0.76 0.74 0.71 0.61 0.54 0.54 0.55 0.54 0.52 0.50 0.47 0.41 0.42 0.49 0.51 0.52 0.55 0.61 0.66 0.70 0.75 0.88 1.00
0.24 0.29 0.34 0.37 0.38 0.35 0.33 0.35 0.39 0.43 0.48 0.50 0.54 0.59 0.65 0.71 0.69 0.69 0.76 0.80 0.77 0.67 0.56 0.52 0.51 0.50 0.51 0.53 0.54 0.53 0.50 0.45 0.46 0.49 0.49 0.49 0.53 0.60 0.64 0.64 0.67 0.79 0.89
0.27 0.30 0.35 0.38 0.38 0.33 0.31 0.33 0.35 0.38 0.45 0.53 0.60 0.68 0.72 0.72 0.70 0.70 0.70 0.67 0.63 0.58 0.54 0.50 0.47 0.47 0.49 0.53 0.54 0.53 0.55 0.54 0.50 0.51 0.50 0.48 0.50 0.57 0.60 0.56 0.60 0.71 0.84
0.30 0.38 0.43 0.42 0.40 0.36 0.33 0.35 0.37 0.39 0.44 0.51 0.59 0.65 0.75 0.80 0.75 0.72 0.63 0.57 0.60 0.59 0.56 0.54 0.49 0.47 0.52 0.56 0.59 0.60 0.60 0.55 0.52 0.51 0.48 0.45 0.45 0.50 0.53 0.52 0.56 0.64 0.72
0.34 0.37 0.44 0.44 0.42 0.40 0.40 0.41 0.42 0.44 0.49 0.52 0.55 0.61 0.83 0.84 0.71 0.59 0.54 0.53 0.56 0.58 0.57 0.56 0.55 0.55 0.57 0.60 0.60 0.58 0.58 0.53 0.50 0.50 0.48 0.45 0.44 0.45 0.45 0.48 0.51 0.56 0.62
0.36 0.38 0.37 0.40 0.44 0.47 0.49 0.48 0.47 0.48 0.50 0.54 0.53 0.56 0.67 0.64 0.58 0.53 0.50 0.48 0.49 0.53 0.57 0.61 0.60 0.57 0.59 0.63 0.64 0.61 0.54 0.48 0.44 0.44 0.44 0.42 0.41 0.41 0.42 0.45 0.47 0.51 0.57
0.37 0.41 0.41 0.41 0.45 0.51 0.50 0.45 0.47 0.50 0.55 0.57 0.55 0.56 0.56 0.58 0.56 0.52 0.51 0.49 0.49 0.49 0.51 0.58 0.61 0.56 0.53 0.56 0.59 0.62 0.59 0.49 0.41 0.42 0.47 0.45 0.41 0.38 0.39 0.42 0.42 0.47 0.53
0.39 0.40 0.43 0.46 0.49 0.50 0.50 0.49 0.50 0.52 0.58 0.62 0.62 0.59 0.57 0.57 0.56 0.51 0.48 0.49 0.50 0.48 0.49 0.53 0.55 0.52 0.50 0.54 0.56 0.53 0.51 0.50 0.51 0.51 0.48 0.46 0.43 0.40 0.42 0.43 0.41 0.43 0.50
0.37 0.39 0.43 0.49 0.53 0.53 0.54 0.55 0.56 0.57 0.61 0.65 0.65 0.62 0.59 0.56 0.53 0.51 0.48 0.49 0.51 0.50 0.47 0.49 0.52 0.52 0.50 0.49 0.52 0.52 0.54 0.59 0.65 0.73 0.79 0.78 0.65 0.53 0.51 0.50 0.45 0.44 0.49
0.36 0.39 0.44 0.51 0.56 0.57 0.59 0.62 0.60 0.61 0.66 0.66 0.63 0.62 0.60 0.58 0.55 0.53 0.53 0.53 0.55 0.53 0.49 0.47 0.48 0.52 0.51 0.49 0.49 0.53 0.58 0.62 0.73 0.92 1.11 1.14 0.89 0.64 0.55 0.55 0.50 0.49 0.51

GEFSGL_prec_meanprecacc_204.txt.gz
Total_Precipitation_Accumulation
0.61 0.63 0.68 0.74 0.72 0.71 0.68 0.63 0.61 0.63 0.70 0.71 0.71 0.76 0.80 0.81 0.82 0.86 0.82 0.76 0.71 0.66 0.61 0.62 0.62 0.64 0.70 0.68 0.65 0.62 0.61 0.69 0.70 0.30 0.20 0.24 0.30 0.33 0.33 0.29 0.26 0.25 0.26
0.63 0.65 0.67 0.72 0.74 0.74 0.78 0.74 0.68 0.62 0.64 0.72 0.76 0.77 0.83 0.87 0.85 0.87 0.89 0.89 0.91 0.86 0.75 0.69 0.67 0.67 0.72 0.74 0.77 0.74 0.67 0.63 0.70 0.51 0.28 0.27 0.35 0.39 0.41 0.40 0.37 0.32 0.26
0.61 0.66 0.70 0.72 0.76 0.75 0.78 0.84 0.86 0.84 0.82 0.83 0.90 0.93 0.96 0.99 1.01 1.00 1.01 1.06 1.12 1.10 1.03 0.98 0.85 0.80 0.83 0.79 0.80 0.81 0.74 0.66 0.63 0.61 0.44 0.36 0.39 0.42 0.49 0.50 0.49 0.46 0.37
0.58 0.70 0.72 0.74 0.73 0.75 0.79 0.86 0.97 1.03 1.07 1.11 1.14 1.15 1.16 1.22 1.33 1.38 1.36 1.34 1.30 1.24 1.19 1.17 1.11 1.05 1.02 0.99 0.98 0.92 0.86 0.85 0.78 0.76 0.65 0.51 0.47 0.47 0.56 0.60 0.59 0.55 0.50
0.51 0.64 0.71 0.75 0.83 0.90 0.91 0.93 0.98 1.11 1.17 1.16 1.18 1.21 1.20 1.38 1.70 1.82 1.66 1.42 1.27 1.19 1.13 1.12 1.17 1.26 1.27 1.29 1.33 1.19 1.09 1.12 1.05 0.98 0.84 0.67 0.55 0.57 0.64 0.65 0.74 0.69 0.64
0.45 0.55 0.64 0.77 0.89 1.02 1.03 1.06 1.08 1.12 1.19 1.21 1.17 1.15 1.16 1.27 1.66 1.79 1.45 1.13 1.02 1.06 1.06 0.98 0.98 1.12 1.16 1.21 1.32 1.31 1.32 1.37 1.36 1.25 1.10 0.93 0.71 0.64 0.69 0.83 0.94 1.03 0.93
0.40 0.51 0.57 0.70 0.83 0.94 0.97 1.01 1.03 0.96 0.95 1.05 1.11 1.03 0.99 1.07 1.41 1.49 1.18 0.82 0.73 0.79 0.84 0.84 0.81 0.86 1.00 0.97 1.03 1.05 1.13 1.26 1.41 1.45 1.41 1.14 0.93 0.82 0.93 1.03 1.05 1.13 1.06
0.35 0.48 0.50 0.60 0.72 0.79 0.85 0.90 0.92 0.83 0.83 0.93 0.94 0.85 0.77 0.81 1.13 1.29 1.05 0.71 0.65 0.69 0.71 0.72 0.71 0.73 0.86 1.03 1.07 0.96 0.89 0.99 1.21 1.36 1.48 1.33 1.14 1.10 1.26 1.43 1.48 1.48 1.34
0.30 0.40 0.45 0.52 0.65 0.67 0.73 0.83 0.83 0.83 0.83 0.80 0.80 0.75 0.68 0.67 0.92 1.21 1.08 0.71 0.71 0.68 0.67 0.71 0.65 0.59 0.81 1.00 1.03 0.95 0.83 0.83 0.95 1.20 1.35 1.37 1.35 1.42 1.58 1.83 1.96 2.00 1.85
0.26 0.32 0.37 0.41 0.53 0.55 0.58 0.65 0.69 0.70 0.73 0.74 0.72 0.68 0.66 0.62 0.77 1.13 1.18 0.79 0.73 0.68 0.66 0.68 0.75 0.73 0.85 0.92 0.87 0.91 0.94 0.83 0.75 0.80 0.88 0.95 1.00 1.07 1.34 1.58 1.77 1.99 1.98
0.22 0.26 0.31 0.35 0.40 0.45 0.49 0.53 0.59 0.61 0.64 0.69 0.68 0.62 0.56 0.56 0.63 0.91 1.27 1.02 0.80 0.69 0.68 0.69 0.68 0.79 0.83 0.87 0.88 0.90 1.02 0.91 0.76 0.80 0.82 0.80 0.83 0.92 1.05 1.26 1.54 1.81 2.01
0.20 0.24 0.29 0.34 0.34 0.38 0.43 0.49 0.52 0.59 0.68 0.70 0.66 0.63 0.56 0.54 0.60 0.78 1.06 1.16 0.99 0.77 0.70 0.59 0.58 0.72 0.76 0.81 0.82 0.88 0.93 0.90 0.86 0.87 0.85 0.80 0.80 0.86 0.94 1.06 1.28 1.51 1.67
0.19 0.23 0.29 0.33 0.31 0.37 0.43 0.50 0.53 0.60 0.69 0.71 0.66 0.62 0.58 0.57 0.63 0.81 0.84 0.90 0.99 0.87 0.81 0.81 0.71 0.73 0.73 0.67 0.69 0.79 0.81 0.78 0.87 0.88 0.78 0.71 0.71 0.79 0.84 0.93 1.03 1.23 1.40
0.20 0.22 0.27 0.34 0.35 0.35 0.40 0.49 0.54 0.58 0.72 0.77 0.73 0.68 0.61 0.59 0.71 0.92 0.85 0.78 0.88 0.90 0.88 0.86 0.82 0.80 0.77 0.69 0.68 0.67 0.65 0.69 0.77 0.77 0.69 0.62 0.62 0.70 0.80 0.90 1.02 1.15 1.35
0.22 0.24 0.28 0.35 0.39 0.37 0.39 0.44 0.50 0.51 0.70 0.86 0.79 0.79 0.77 0.77 0.87 1.06 1.05 0.97 0.97 1.00 1.00 0.96 0.89 0.85 0.84 0.77 0.69 0.62 0.61 0.65 0.70 0.65 0.64 0.64 0.64 0.69 0.75 0.82 1.01 1.15 1.32
0.27 0.29 0.32 0.38 0.40 0.39 0.40 0.42 0.47 0.48 0.55 0.59 0.66 0.75 0.73 0.84 0.89 0.85 0.92 0.95 0.97 1.01 1.02 0.97 0.81 0.73 0.72 0.70 0.68 0.64 0.59 0.57 0.56 0.58 0.62 0.63 0.65 0.69 0.74 0.78 0.93 1.10 1.20
0.30 0.34 0.36 0.40 0.40 0.40 0.38 0.40 0.45 0.44 0.46 0.49 0.55 0.62 0.73 0.81 0.77 0.76 0.82 0.83 0.83 0.83 0.81 0.71 0.65 0.65 0.65 0.65 0.64 0.62 0.59 0.51 0.50 0.55 0.57 0.58 0.61 0.67 0.72 0.75 0.81 0.94 1.04
0.30 0.35 0.39 0.41 0.41 0.38 0.35 0.37 0.42 0.47 0.53 0.55 0.60 0.65 0.72 0.77 0.75 0.75 0.81 0.86 0.84 0.75 0.64 0.61 0.60 0.59 0.61 0.63 0.65 0.64 0.59 0.54 0.55 0.57 0.57 0.57 0.61 0.69 0.71 0.70 0.73 0.84 0.93
0.32 0.35 0.39 0.41 0.40 0.35 0.33 0.35 0.37 0.41 0.49 0.58 0.65 0.73 0.79 0.78 0.76 0.75 0.75 0.72 0.68 0.65 0.61 0.58 0.55 0.56 0.60 0.65 0.66 0.63 0.63 0.61 0.58 0.60 0.60 0.58 0.58 0.65 0.67 0.62 0.65 0.75 0.88
0.34 0.42 0.47 0.44 0.42 0.38 0.35 0.37 0.39 0.42 0.48 0.55 0.64 0.70 0.81 0.86 0.80 0.77 0.68 0.62 0.65 0.64 0.62 0.61 0.56 0.56 0.62 0.66 0.69 0.69 0.68 0.63 0.60 0.60 0.57 0.54 0.54 0.58 0.61 0.58 0.60 0.68 0.75
0.39 0.41 0.47 0.46 0.45 0.43 0.43 0.44 0.44 0.47 0.53 0.56 0.59 0.66 0.89 0.89 0.75 0.64 0.60 0.58 0.61 0.64 0.63 0.61 0.61 0.62 0.65 0.69 0.68 0.67 0.67 0.62 0.58 0.58 0.56 0.53 0.53 0.53 0.52 0.55 0.56 0.60 0.67
0.40 0.42 0.41 0.43 0.47 0.49 0.51 0.50 0.50 0.52 0.55 0.57 0.57 0.60 0.71 0.68 0.62 0.57 0.56 0.54 0.55 0.59 0.62 0.67 0.66 0.63 0.65 0.70 0.71 0.68 0.62 0.56 0.51 0.52 0.52 0.50 0.50 0.49 0.49 0.51 0.52 0.56 0.61
0.41 0.45 0.44 0.45 0.48 0.54 0.52 0.47 0.50 0.54 0.58 0.60 0.59 0.60 0.61 0.63 0.60 0.56 0.56 0.55 0.55 0.55 0.57 0.63 0.66 0.61 0.58 0.61 0.64 0.66 0.64 0.54 0.47 0.48 0.53 0.51 0.48 0.45 0.47 0.49 0.47 0.52 0.57
0.42 0.43 0.46 0.50 0.52 0.52 0.51 0.50 0.52 0.56 0.61 0.66 0.65 0.63 0.63 0.63 0.62 0.56 0.53 0.54 0.55 0.54 0.54 0.58 0.59 0.56 0.54 0.58 0.58 0.56 0.55 0.53 0.55 0.55 0.52 0.51 0.48 0.44 0.47 0.48 0.47 0.48 0.53
0.41 0.43 0.46 0.51 0.55 0.55 0.56 0.57 0.58 0.60 0.65 0.69 0.69 0.67 0.64 0.63 0.60 0.56 0.53 0.53 0.54 0.54 0.51 0.52 0.55 0.55 0.52 0.52 0.54 0.54 0.57 0.62 0.69 0.77 0.83 0.81 0.68 0.57 0.54 0.54 0.50 0.48 0.52
0.40 0.42 0.47 0.54 0.59 0.59 0.60 0.63 0.63 0.64 0.70 0.70 0.68 0.67 0.66 0.65 0.61 0.58 0.57 0.56 0.58 0.56 0.52 0.49 0.50 0.54 0.54 0.52 0.51 0.56 0.60 0.65 0.76 0.95 1.14 1.17 0.92 0.68 0.59 0.58 0.53 0.51 0.54

GEFSGL_prec_meanprecacc_210.txt.gz
Total_Precipitation_Accumulation
0.62 0.64 0.69 0.77 0.75 0.74 0.72 0.68 0.65 0.66 0.74 0.76 0.76 0.81 0.86 0.88 0.88 0.94 0.92 0.86 0.83 0.78 0.74 0.75 0.75 0.78 0.85 0.83 0.79 0.74 0.71 0.78 0.78 0.35 0.24 0.27 0.35 0.38 0.37 0.34 0.31 0.31 0.32
0.64 0.66 0.68 0.76 0.81 0.79 0.84 0.83 0.74 0.66 0.68 0.75 0.79 0.81 0.89 0.94 0.92 0.94 0.97 0.98 1.01 0.97 0.87 0.82 0.80 0.81 0.86 0.88 0.93 0.89 0.79 0.72 0.78 0.57 0.33 0.32 0.41 0.45 0.46 0.47 0.44 0.40 0.34
0.64 0.69 0.72 0.76 0.83 0.84 0.86 0.93 0.92 0.89 0.90 0.90 0.94 0.97 1.01 1.05 1.08 1.09 1.10 1.14 1.19 1.19 1.12 1.07 0.97 0.93 0.96 0.93 0.94 0.94 0.87 0.77 0.72 0.69 0.50 0.42 0.46 0.48 0.55 0.59 0.59 0.56 0.48
0.62 0.74 0.75 0.78 0.79 0.83 0.88 0.92 1.04 1.10 1.16 1.22 1.20 1.20 1.21 1.27 1.39 1.46 1.45 1.42 1.37 1.33 1.29 1.27 1.21 1.14 1.12 1.10 1.10 1.03 0.97 0.95 0.87 0.84 0.71 0.58 0.56 0.56 0.64 0.69 0.70 0.67 0.62
0.57 0.69 0.75 0.80 0.90 0.97 0.99 1.01 1.05 1.17 1.23 1.24 1.27 1.29 1.28 1.44 1.74 1.87 1.72 1.51 1.36 1.28 1.23 1.22 1.26 1.35 1.35 1.37 1.42 1.29 1.19 1.21 1.14 1.05 0.90 0.75 0.66 0.67 0.73 0.74 0.83 0.79 0.74
0.53 0.62 0.70 0.84 0.95 1.08 1.10 1.14 1.15 1.20 1.26 1.28 1.24 1.23 1.22 1.33 1.71 1.83 1.50 1.20 1.11 1.16 1.16 1.08 1.07 1.21 1.26 1.31 1.42 1.41 1.41 1.46 1.44 1.32 1.16 1.00 0.79 0.72 0.78 0.91 1.01 1.09 1.01
0.44 0.57 0.64 0.78 0.91 1.00 1.03 1.07 1.09 1.02 1.00 1.10 1.16 1.08 1.04 1.13 1.46 1.54 1.24 0.88 0.79 0.87 0.92 0.93 0.90 0.94 1.09 1.07 1.12 1.15 1.22 1.34 1.49 1.54 1.50 1.21 0.99 0.89 1.01 1.11 1.13 1.20 1.13
0.39 0.52 0.56 0.66 0.79 0.84 0.90 0.96 0.97 0.88 0.88 0.98 0.99 0.89 0.82 0.86 1.18 1.33 1.11 0.76 0.70 0.75 0.78 0.80 0.80 0.81 0.96 1.13 1.17 1.05 0.97 1.06 1.29 1.45 1.57 1.41 1.21 1.18 1.34 1.50 1.54 1.54 1.41
0.32 0.42 0.49 0.57 0.71 0.72 0.77 0.88 0.87 0.87 0.86 0.84 0.83 0.77 0.71 0.71 0.96 1.25 1.13 0.76 0.76 0.74 0.73 0.78 0.73 0.68 0.92 1.11 1.12 1.05 0.92 0.92 1.04 1.31 1.47 1.49 1.48 1.55 1.70 1.93 2.04 2.08 1.93
0.28 0.35 0.40 0.45 0.58 0.61 0.62 0.68 0.72 0.73 0.76 0.77 0.75 0.70 0.68 0.63 0.79 1.16 1.22 0.83 0.79 0.75 0.72 0.75 0.84 0.81 0.94 1.01 0.95 0.99 1.02 0.91 0.82 0.88 0.98 1.07 1.10 1.17 1.44 1.67 1.86 2.07 2.05
0.24 0.28 0.33 0.37 0.43 0.48 0.53 0.56 0.60 0.63 0.67 0.72 0.72 0.66 0.58 0.58 0.65 0.93 1.29 1.05 0.84 0.75 0.74 0.76 0.77 0.88 0.90 0.94 0.96 0.96 1.09 0.97 0.82 0.87 0.89 0.88 0.91 0.99 1.12 1.34 1.63 1.90 2.10
0.22 0.27 0.31 0.36 0.37 0.41 0.46 0.51 0.53 0.61 0.70 0.74 0.71 0.67 0.60 0.57 0.64 0.82 1.09 1.20 1.03 0.82 0.76 0.65 0.65 0.79 0.82 0.88 0.89 0.94 1.01 0.98 0.93 0.94 0.92 0.87 0.87 0.93 1.01 1.14 1.36 1.59 1.75
0.22 0.25 0.31 0.35 0.33 0.39 0.47 0.53 0.56 0.63 0.72 0.74 0.71 0.68 0.64 0.63 0.70 0.88 0.90 0.97 1.05 0.92 0.85 0.86 0.76 0.79 0.80 0.74 0.76 0.86 0.88 0.84 0.93 0.94 0.85 0.78 0.78 0.86 0.90 0.99 1.09 1.29 1.47
0.22 0.25 0.29 0.36 0.37 0.37 0.44 0.53 0.58 0.62 0.76 0.81 0.77 0.74 0.67 0.65 0.78 0.99 0.92 0.85 0.95 0.96 0.94 0.91 0.86 0.85 0.83 0.76 0.75 0.74 0.72 0.76 0.84 0.84 0.75 0.68 0.68 0.77 0.87 0.96 1.08 1.20 1.40
0.23 0.25 0.30 0.37 0.41 0.39 0.41 0.47 0.55 0.58 0.77 0.92 0.85 0.85 0.83 0.83 0.92 1.12 1.11 1.04 1.06 1.09 1.08 1.04 0.96 0.92 0.91 0.84 0.76 0.70 0.69 0.74 0.79 0.72 0.70 0.69 0.69 0.75 0.82 0.88 1.06 1.19 1.36
0.28 0.30 0.34 0.40 0.41 0.41 0.41 0.45 0.52 0.55 0.62 0.66 0.72 0.80 0.79 0.89 0.95 0.91 0.98 1.02 1.05 1.11 1.12 1.06 0.89 0.79 0.79 0.76 0.75 0.72 0.67 0.65 0.63 0.65 0.69 0.69 0.71 0.75 0.80 0.83 0.98 1.14 1.23
0.32 0.35 0.38 0.42 0.41 0.41 0.40 0.43 0.49 0.48 0.51 0.54 0.60 0.67 0.78 0.86 0.82 0.80 0.87 0.89 0.91 0.91 0.89 0.79 0.72 0.71 0.71 0.70 0.69 0.68 0.66 0.58 0.57 0.62 0.64 0.64 0.67 0.72 0.77 0.80 0.85 0.97 1.07
0.32 0.37 0.41 0.43 0.42 0.39 0.36 0.39 0.44 0.50 0.56 0.59 0.64 0.69 0.76 0.82 0.80 0.79 0.86 0.91 0.90 0.83 0.71 0.68 0.68 0.67 0.67 0.70 0.71 0.69 0.65 0.61 0.62 0.64 0.62 0.62 0.66 0.74 0.76 0.75 0.77 0.87 0.96
0.34 0.37 0.42 0.43 0.42 0.36 0.34 0.37 0.39 0.43 0.52 0.61 0.68 0.75 0.82 0.82 0.79 0.79 0.80 0.76 0.74 0.71 0.68 0.66 0.63 0.64 0.67 0.72 0.73 0.70 0.70 0.67 0.64 0.65 0.64 0.62 0.64 0.70 0.72 0.66 0.69 0.79 0.92
0.37 0.45 0.49 0.46 0.44 0.39 0.36 0.39 0.41 0.44 0.50 0.58 0.67 0.72 0.84 0.90 0.84 0.82 0.73 0.67 0.71 0.71 0.69 0.69 0.64 0.63 0.69 0.74 0.77 0.77 0.75 0.70 0.66 0.66 0.62 0.59 0.59 0.63 0.66 0.62 0.65 0.72 0.79
0.41 0.44 0.49 0.48 0.46 0.44 0.45 0.45 0.46 0.50 0.56 0.59 0.62 0.70 0.93 0.94 0.79 0.68 0.64 0.63 0.66 0.70 0.70 0.69 0.69 0.69 0.72 0.76 0.76 0.74 0.74 0.69 0.65 0.64 0.62 0.58 0.57 0.58 0.57 0.60 0.61 0.65 0.70
0.42 0.44 0.43 0.45 0.49 0.51 0.53 0.52 0.53 0.55 0.57 0.60 0.61 0.65 0.76 0.72 0.65 0.61 0.59 0.59 0.60 0.64 0.68 0.74 0.74 0.70 0.72 0.77 0.78 0.74 0.69 0.63 0.58 0.58 0.58 0.56 0.55 0.54 0.54 0.57 0.58 0.61 0.65
0.45 0.48 0.47 0.47 0.50 0.57 0.55 0.50 0.53 0.57 0.61 0.64 0.64 0.65 0.66 0.66 0.63 0.60 0.60 0.60 0.60 0.60 0.62 0.70 0.73 0.67 0.65 0.67 0.70 0.72 0.70 0.61 0.54 0.55 0.59 0.58 0.54 0.51 0.52 0.54 0.52 0.56 0.61
0.47 0.47 0.49 0.53 0.55 0.56 0.56 0.55 0.57 0.60 0.66 0.71 0.71 0.69 0.68 0.67 0.65 0.60 0.57 0.58 0.58 0.57 0.59 0.64 0.65 0.61 0.59 0.63 0.64 0.61 0.60 0.60 0.62 0.61 0.58 0.57 0.54 0.50 0.52 0.54 0.52 0.52 0.57
0.46 0.47 0.49 0.55 0.60 0.60 0.60 0.61 0.62 0.64 0.69 0.73 0.75 0.73 0.69 0.67 0.64 0.60 0.57 0.56 0.58 0.58 0.56 0.58 0.60 0.59 0.56 0.55 0.58 0.59 0.62 0.68 0.74 0.81 0.88 0.86 0.73 0.61 0.59 0.58 0.55 0.53 0.56
0.44 0.46 0.51 0.58 0.63 0.63 0.64 0.67 0.66 0.68 0.74 0.75 0.73 0.73 0.71 0.69 0.65 0.62 0.61 0.60 0.62 0.60 0.57 0.55 0.55 0.58 0.57 0.55 0.54 0.59 0.64 0.68 0.80 0.99 1.18 1.20 0.95 0.71 0.62 0.63 0.56 0.55 0.57

GEFSGL_prec_meanprecacc_216.txt.gz
Total_Precipitation_Accumulation
0.64 0.66 0.72 0.80 0.78 0.76 0.73 0.68 0.65 0.67 0.75 0.77 0.77 0.83 0.88 0.89 0.90 0.96 0.95 0.90 0.87 0.83 0.79 0.80 0.81 0.83 0.90 0.89 0.84 0.80 0.77 0.85 0.86 0.43 0.31 0.35 0.43 0.46 0.45 0.40 0.36 0.34 0.36
0.66 0.68 0.70 0.79 0.83 0.81 0.85 0.84 0.74 0.67 0.69 0.77 0.81 0.83 0.91 0.96 0.95 0.98 1.01 1.02 1.06 1.02 0.93 0.88 0.87 0.87 0.93 0.96 1.01 0.97 0.87 0.81 0.87 0.68 0.41 0.40 0.50 0.56 0.57 0.55 0.49 0.43 0.38
0.65 0.70 0.74 0.77 0.84 0.85 0.87 0.93 0.93 0.90 0.91 0.91 0.96 1.00 1.03 1.07 1.11 1.13 1.14 1.19 1.24 1.24 1.18 1.13 1.02 0.99 1.03 1.00 1.02 1.04 0.97 0.88 0.85 0.81 0.61 0.53 0.58 0.61 0.68 0.69 0.66 0.62 0.53
0.64 0.75 0.76 0.79 0.80 0.84 0.88 0.92 1.04 1.11 1.18 1.24 1.22 1.23 1.25 1.30 1.42 1.50 1.49 1.47 1.42 1.38 1.35 1.32 1.25 1.19 1.17 1.15 1.16 1.11 1.05 1.05 0.98 0.95 0.82 0.69 0.69 0.66 0.74 0.79 0.80 0.76 0.70
0.60 0.70 0.76 0.82 0.91 0.98 1.00 1.02 1.07 1.19 1.26 1.27 1.30 1.33 1.33 1.49 1.79 1.91 1.76 1.55 1.41 1.33 1.28 1.27 1.30 1.39 1.39 1.41 1.47 1.35 1.25 1.28 1.23 1.16 1.01 0.84 0.75 0.78 0.82 0.81 0.91 0.87 0.83
0.56 0.64 0.72 0.86 0.97 1.09 1.11 1.15 1.17 1.22 1.30 1.32 1.28 1.29 1.28 1.39 1.78 1.90 1.55 1.24 1.16 1.21 1.21 1.14 1.12 1.26 1.32 1.37 1.48 1.48 1.48 1.52 1.51 1.40 1.25 1.07 0.86 0.81 0.86 0.98 1.08 1.16 1.10
0.46 0.59 0.66 0.80 0.92 1.02 1.05 1.09 1.12 1.06 1.05 1.15 1.21 1.15 1.11 1.19 1.52 1.62 1.33 0.95 0.85 0.93 0.97 0.98 0.96 1.00 1.16 1.13 1.19 1.23 1.30 1.41 1.55 1.60 1.57 1.28 1.06 0.95 1.09 1.20 1.20 1.27 1.20
0.41 0.54 0.59 0.68 0.82 0.88 0.94 0.99 1.01 0.93 0.92 1.02 1.04 0.95 0.88 0.92 1.25 1.40 1.19 0.85 0.79 0.84 0.86 0.88 0.87 0.87 1.01 1.18 1.22 1.10 1.03 1.13 1.36 1.52 1.65 1.47 1.28 1.25 1.43 1.60 1.63 1.62 1.48
0.34 0.45 0.52 0.60 0.76 0.77 0.83 0.92 0.91 0.91 0.90 0.87 0.86 0.81 0.75 0.77 1.03 1.32 1.19 0.82 0.85 0.85 0.84 0.88 0.83 0.76 1.00 1.19 1.19 1.10 0.98 0.99 1.11 1.38 1.55 1.57 1.57 1.65 1.80 2.03 2.14 2.17 2.01
0.29 0.37 0.43 0.48 0.62 0.65 0.67 0.73 0.75 0.77 0.81 0.81 0.79 0.74 0.72 0.68 0.85 1.22 1.27 0.88 0.85 0.83 0.82 0.84 0.93 0.91 1.05 1.11 1.04 1.07 1.09 0.98 0.88 0.94 1.05 1.13 1.17 1.24 1.52 1.76 1.96 2.16 2.12
0.25 0.30 0.35 0.40 0.46 0.51 0.56 0.60 0.64 0.67 0.72 0.77 0.77 0.71 0.63 0.63 0.71 0.99 1.33 1.08 0.88 0.80 0.80 0.83 0.84 0.96 0.99 1.03 1.05 1.05 1.17 1.04 0.88 0.93 0.96 0.94 0.97 1.06 1.19 1.41 1.70 1.97 2.15
0.23 0.28 0.33 0.38 0.39 0.43 0.48 0.54 0.56 0.64 0.75 0.78 0.75 0.72 0.65 0.62 0.68 0.87 1.13 1.23 1.07 0.86 0.80 0.69 0.70 0.85 0.89 0.96 0.97 1.03 1.09 1.06 1.00 1.01 0.99 0.94 0.94 1.00 1.09 1.21 1.42 1.65 1.81
0.23 0.27 0.32 0.37 0.34 0.41 0.48 0.55 0.58 0.66 0.76 0.78 0.74 0.71 0.69 0.67 0.74 0.92 0.94 1.00 1.08 0.95 0.89 0.89 0.80 0.83 0.85 0.80 0.83 0.94 0.96 0.93 1.01 1.02 0.92 0.85 0.85 0.93 0.98 1.06 1.16 1.35 1.53
0.23 0.26 0.31 0.38 0.39 0.39 0.45 0.54 0.59 0.64 0.79 0.85 0.81 0.78 0.71 0.69 0.81 1.03 0.96 0.89 0.99 1.00 0.97 0.94 0.90 0.89 0.87 0.80 0.80 0.80 0.78 0.83 0.92 0.91 0.83 0.76 0.75 0.83 0.95 1.03 1.14 1.25 1.45
0.24 0.26 0.31 0.39 0.43 0.41 0.43 0.49 0.57 0.61 0.80 0.96 0.89 0.90 0.88 0.88 0.98 1.18 1.16 1.09 1.12 1.14 1.12 1.09 1.01 0.97 0.95 0.88 0.81 0.75 0.75 0.81 0.86 0.79 0.77 0.77 0.77 0.82 0.89 0.95 1.12 1.25 1.41
0.29 0.31 0.35 0.42 0.43 0.43 0.43 0.47 0.55 0.59 0.66 0.70 0.76 0.85 0.84 0.94 1.00 0.96 1.02 1.07 1.10 1.15 1.15 1.10 0.93 0.83 0.82 0.79 0.78 0.76 0.72 0.70 0.68 0.71 0.75 0.75 0.77 0.81 0.85 0.89 1.04 1.20 1.29
0.33 0.36 0.40 0.43 0.43 0.43 0.42 0.45 0.51 0.51 0.54 0.58 0.63 0.71 0.82 0.90 0.85 0.84 0.91 0.93 0.95 0.95 0.92 0.82 0.75 0.75 0.74 0.73 0.72 0.72 0.71 0.63 0.62 0.68 0.70 0.70 0.73 0.79 0.82 0.85 0.91 1.04 1.13
0.33 0.39 0.43 0.44 0.44 0.41 0.38 0.41 0.47 0.53 0.59 0.62 0.67 0.73 0.80 0.85 0.83 0.84 0.91 0.96 0.96 0.88 0.75 0.71 0.71 0.70 0.70 0.72 0.74 0.73 0.70 0.66 0.67 0.69 0.68 0.68 0.72 0.80 0.82 0.80 0.83 0.93 1.01
0.36 0.40 0.44 0.45 0.43 0.38 0.36 0.39 0.41 0.46 0.54 0.64 0.71 0.78 0.85 0.85 0.83 0.84 0.85 0.82 0.80 0.77 0.73 0.70 0.67 0.67 0.70 0.75 0.77 0.74 0.73 0.72 0.69 0.70 0.70 0.68 0.70 0.76 0.77 0.71 0.74 0.84 0.96
0.39 0.47 0.51 0.48 0.45 0.40 0.38 0.41 0.43 0.47 0.53 0.61 0.70 0.76 0.88 0.93 0.88 0.86 0.78 0.72 0.77 0.77 0.75 0.74 0.69 0.67 0.73 0.78 0.82 0.80 0.79 0.74 0.71 0.71 0.67 0.64 0.64 0.68 0.70 0.67 0.69 0.76 0.82
0.42 0.45 0.51 0.50 0.47 0.45 0.46 0.47 0.48 0.52 0.58 0.61 0.65 0.75 0.98 0.99 0.84 0.72 0.69 0.68 0.72 0.76 0.76 0.75 0.75 0.75 0.77 0.81 0.81 0.79 0.78 0.73 0.69 0.69 0.68 0.64 0.62 0.62 0.62 0.64 0.65 0.68 0.74
0.45 0.46 0.45 0.46 0.51 0.53 0.55 0.54 0.55 0.57 0.60 0.63 0.64 0.69 0.80 0.75 0.68 0.65 0.64 0.65 0.66 0.70 0.74 0.80 0.79 0.76 0.78 0.82 0.84 0.80 0.75 0.69 0.63 0.63 0.64 0.60 0.59 0.58 0.59 0.61 0.61 0.64 0.68
0.48 0.50 0.49 0.49 0.52 0.59 0.58 0.53 0.56 0.60 0.64 0.67 0.67 0.69 0.68 0.69 0.67 0.64 0.65 0.66 0.66 0.65 0.67 0.75 0.78 0.72 0.70 0.72 0.75 0.78 0.76 0.66 0.59 0.60 0.64 0.63 0.58 0.55 0.57 0.58 0.55 0.60 0.64
0.50 0.50 0.52 0.55 0.58 0.59 0.58 0.58 0.60 0.63 0.69 0.75 0.74 0.72 0.71 0.70 0.69 0.64 0.61 0.63 0.63 0.62 0.64 0.69 0.70 0.66 0.64 0.67 0.69 0.67 0.66 0.66 0.67 0.66 0.63 0.62 0.58 0.54 0.57 0.58 0.56 0.56 0.60
0.49 0.50 0.53 0.59 0.63 0.63 0.64 0.64 0.65 0.67 0.73 0.78 0.78 0.76 0.73 0.71 0.67 0.64 0.60 0.60 0.62 0.63 0.62 0.63 0.65 0.64 0.61 0.61 0.63 0.64 0.69 0.76 0.81 0.87 0.93 0.91 0.77 0.65 0.63 0.63 0.60 0.57 0.60
0.48 0.50 0.54 0.61 0.67 0.67 0.69 0.70 0.69 0.71 0.78 0.80 0.77 0.77 0.75 0.73 0.69 0.66 0.65 0.64 0.67 0.66 0.63 0.60 0.60 0.63 0.63 0.61 0.60 0.65 0.71 0.76 0.87 1.06 1.23 1.25 1.00 0.76 0.67 0.67 0.61 0.59 0.61